IRIDIUM 142 (43256 NORAD) Tracking and Keplerian Element Data

This shows tracking and keplerian element data for the satellite.

Feedback or suggestion? Click here.




ElementValue
Catalog43256
NameIRIDIUM 142
Epoch Orbit40446
Epoch Day354.08406828
Epoch Year2025
RAAN5.2273
Inclination86.3962
Eccentricity0.0002606
Argument of Perigee92.7788
Mean Anonmoly267.3706
Mean Motion14.34218279
Decay Rate1.03E-06
L11 43256U 18030H 25354.08406828 .00000103 00000+0 29685-4 0 9994
L22 43256 86.3962 5.2273 0002606 92.7788 267.3706 14.34218279404460



Live tracking and technical data element details for IRIDIUM 142 (NORAD 43256). IRIDIUM 142 can be tracked NOW for your location showing map with azimuth and elevation plus other details from your city location.







IsCatalogInMostPopularTable: catalog: 43256, numindb: 631
Update: records affected: 1



GetName: 43256 IRIDIUM 142

Hit Count: updated at: Thu, 16 Apr 2026 06:52:37 GMT